Location: *
(51.1248°S, 108.4023°W)
Time: 09:03:29
(UTC+00:00)

Cosmos 1544 - Visible Passes

Search period start: 23 October 2021 00:00
Search period end: 02 November 2021 00:00
Orbit: 469 x 486 km, 82.5° (Epoch: 23 October)

Date Brightness Start Highest point End Pass type
(mag) Time Alt. Az. Time Alt. Az. Time Alt. Az.
23 Oct 3.2 08:52:19 69° S 08:52:19 69° S 08:55:38 10° S visible
24 Oct 3.8 08:25:33 51° SE 08:25:33 51° SE 08:28:38 10° SSE visible
24 Oct 5.2 09:59:46 13° WSW 10:00:20 14° WSW 10:02:19 10° SSW visible
25 Oct 4.5 07:58:46 33° ESE 07:58:46 33° ESE 08:01:30 10° SSE visible
25 Oct 4.8 09:32:59 20° WSW 09:33:09 20° WSW 09:36:00 10° SSW visible
26 Oct 5.2 07:31:58 21° ESE 07:31:58 21° ESE 07:34:11 10° SE visible
26 Oct 4.2 09:06:11 31° WSW 09:06:11 31° WSW 09:09:22 10° S visible
27 Oct 5.6 07:05:10 14° ESE 07:05:10 14° ESE 07:06:35 10° SE visible
27 Oct 3.7 08:39:22 47° SW 08:39:22 47° SW 08:42:35 10° S visible
28 Oct 3.5 08:12:33 60° S 08:12:33 60° S 08:15:39 10° S visible
29 Oct 3.9 07:45:42 48° SE 07:45:42 48° SE 07:48:38 10° SSE visible
29 Oct 5.3 09:19:55 14° WSW 09:20:19 14° WSW 09:22:20 10° SSW visible
30 Oct 4.5 07:18:50 32° ESE 07:18:50 32° ESE 07:21:28 10° SSE visible
30 Oct 4.8 08:53:03 21° WSW 08:53:07 21° WSW 08:55:59 10° SSW visible
31 Oct 5.1 06:51:58 21° ESE 06:51:58 21° ESE 06:54:09 10° SE visible
31 Oct 4.3 08:26:11 31° WSW 08:26:11 31° WSW 08:29:20 10° S visible
01 Nov 5.5 06:25:05 14° ESE 06:25:05 14° ESE 06:26:30 10° SE visible
01 Nov 3.8 07:59:18 47° SW 07:59:18 47° SW 08:02:31 10° S visible
